Flag for Russia Weather past 2 weeks in Yakutsk, Russia

Now
57 °F

Clear.


Feels Like: 56 °F
Forecast: 56 / 72 °F
Wind: 6 mph from Northwest

Location: Jakutsk

Current Time: Jul 4, 2015 at 12:46:46 AM

Latest Report: Jul 4, 2015 at 12:00 AM


Visibility: 10 mi

Pressure: 29.71 "Hg

Humidity: 67%

Dew point: 46 °F

Location of YakutskLocation

Historic Weather in Yakutsk — Graph

°F

Yakutsk temperature yesterday

Maximum temperature yesterday: 75 °F (at 4:00 PM)
Minimum temperature yesterday: 50 °F (at 2:30 AM)
Average temperature yesterday: 64 °F

Past Weeks' High & Low Weather Summary

 TemperatureHumidityPressure
High79 °F (Jun 19, 6:00 PM)100% (Jun 22, 9:30 PM)29.89 "Hg (Jun 22, 9:30 PM)
Low45 °F (Jun 21, 2:30 AM)21% (Jun 20, 2:30 PM)29.30 "Hg (Jun 25, 5:30 AM)
Average61 °F66%29.62 "Hg
* Reported Jun 18 11:00 PM — Jul 3 11:30 PM, Yakutsk, Weather by CustomWeather, © 2015

Note: Actual official high and low records may vary slightly from our data, if they occured in-between our weather recording intervals... More about our weather records

Advertising

Yakutsk weather history for previous 24 hours

 ConditionsComfort  
Time TempWeatherWind HumidityBarometerVisibility
11:30 PM
Fri, Jul 3
59 °FClear.3 mph63%29.68 "Hg10 mi
11:00 PM61 °FClear.3 mph59%29.68 "Hg10 mi
10:30 PM63 °FClear.3 mph56%29.68 "Hg10 mi
10:00 PM64 °FSunny.3 mph52%29.68 "Hg10 mi
9:30 PM68 °FSunny.3 mph43%29.68 "Hg10 mi
9:00 PM70 °FSunny.3 mph38%29.68 "Hg10 mi
8:30 PM72 °FSunny.3 mph33%29.68 "Hg10 mi
8:00 PM73 °FSunny.3 mph31%29.68 "Hg10 mi
7:30 PM73 °FSunny.10 mph29%29.65 "Hg10 mi
7:00 PM73 °FSunny.8 mph29%29.65 "Hg10 mi
6:30 PM75 °FSunny.8 mph27%29.65 "Hg10 mi
6:00 PM75 °FSunny.10 mph24%29.65 "Hg10 mi
5:30 PM75 °FSunny.10 mph24%29.65 "Hg10 mi
5:00 PM75 °FSunny.10 mph25%29.65 "Hg10 mi
4:30 PM75 °FSunny.10 mph27%29.65 "Hg10 mi
4:00 PM75 °FSunny.10 mph27%29.65 "Hg10 mi
3:30 PM73 °FPassing clouds.10 mph31%29.65 "HgN/A
3:00 PM73 °FSunny.10 mph31%29.65 "Hg10 mi
2:30 PM73 °FSunny.10 mph33%29.68 "Hg10 mi
2:00 PM72 °FSunny.10 mph36%29.68 "Hg10 mi
1:30 PM72 °FSunny.13 mph36%29.68 "Hg10 mi
12:30 PM70 °FSunny.13 mph38%29.68 "Hg10 mi
12:00 PM70 °FSunny.13 mph35%29.68 "Hg10 mi
11:30 AM70 °FSunny.13 mph38%29.68 "Hg10 mi
11:00 AM70 °FSunny.13 mph35%29.68 "Hg10 mi
10:30 AM68 °FSunny.13 mph43%29.68 "Hg10 mi
10:00 AM68 °FSunny.13 mph40%29.68 "Hg10 mi
9:30 AM66 °FSunny.10 mph43%29.68 "Hg10 mi
9:00 AM64 °FSunny.10 mph49%29.68 "Hg10 mi
8:30 AM63 °FSunny.13 mph52%29.71 "Hg10 mi
8:00 AM61 °FSunny.10 mph55%29.71 "Hg10 mi
7:30 AM61 °FSunny.15 mph55%29.71 "Hg10 mi
7:00 AM57 °FSunny.10 mph63%29.71 "Hg10 mi
6:30 AM57 °FSunny.10 mph63%29.71 "Hg10 mi
5:30 AM55 °FSunny.8 mph67%29.71 "Hg10 mi
5:00 AM54 °FSunny.10 mph72%29.71 "Hg10 mi
4:30 AM52 °FSunny.6 mph77%29.71 "Hg10 mi
4:00 AM50 °FSunny.6 mph82%29.71 "Hg10 mi
3:30 AM50 °FSunny.1 mph82%29.71 "Hg10 mi
3:00 AM50 °FSunny.3 mph82%29.71 "Hg10 mi
2:30 AM50 °FClear.3 mph82%29.71 "Hg10 mi
2:00 AM52 °FClear.6 mph77%29.71 "Hg10 mi
1:30 AM52 °FClear.6 mph77%29.74 "Hg10 mi
1:00 AM54 °FClear.3 mph72%29.74 "Hg10 mi
12:30 AM55 °FClear.6 mph67%29.74 "Hg10 mi
12:00 AM57 °FClear.6 mph67%29.74 "Hg10 mi
Weather by CustomWeather, © 2015

See weather overviewHow to use our weather pages